OBJECT C, 60237

Orbit data source: Space-Track

You're viewing an Uncataloged Satellite

Recently launched and/or uncataloged satellites may have evolving metadata. Metadata may include but not limited to: Owner, Maufacturer, Bus, Motor, and Mission.

OBJECT C, 60237 is a satellite in LEO that was launched on Tue, 09 Jul 2024 UTC via an ARIANE 62 launch vehicle from the French Guiana (FRGUI). Unknown objects in Earth's orbit typically refer to objects detected orbiting the Earth but have not yet been identified or cataloged. These objects could be anything from previously untracked satellites, spent rocket stages, debris from satellite collisions, or even natural meteoroids temporarily captured by Earth's gravity.

Loading next visibility...
Identifier
60237, 2024-128C
Orbit
LEO
Country
Flag of TBDTBD
Related business
Flag of SKTechnical University of Kosice (SK)
Manufacturer
TUKE/KONK
Mission
Operational Amateur Astronomy
Bus & Motor
CUBESAT 2U, Unknown motor
Mass
2 kg wet, 2 kg dry
Launch date (UTC)
2024-07-09 (1 year ago)
Launch vehicle
ARIANE 62
Launch site
French Guiana (FRGUI)
Object type
Unknown
Shape & HBR
Box, 0.1 m
Radar Cross Section
0.025 m², Small (<0.1 m²)

Expand to show TLE details & history
Last TLE update: 11 hours ago

TLE from 11 hours ago
0 OBJECT C
1 60237U 24128C   25308.26896397  .00005441  00000-0  39123-3 0  9998
2 60237  61.9902 284.0803 0057066  88.4364 272.3263 15.04176770 72405
Epoch: 2025-11-04T06:27Z
TLE epoch observation values (Epoch: 2025-11-04T06:27:18.487Z)
Latitude
-0.00009°
Longitude
143.49481°
Altitude
554.425 km
Speed
7.586 km/s
True Right ascension
18h 56m 19s
True Declination
0° 00' 00"
Sunlit
Object was in daylight at epoch
Visualization orbit readout
Latitude
Unknown
Longitude
Unknown
Altitude
Unknown
Speed
Unknown
Apparent Right ascension
Unknown
Apparent Declination
Unknown
Sunlit
N/A
Visualization observer readout
Local Sidereal Time
13:20:46
Azimuth
Unknown
Elevation
Unknown
Doppler factor
Unknown
Orbital elements
Apogee altitude
592.516 km
Perigee altitude
513.41 km
Semi-major axis
6,931.1 km
Eccentricity
0.00571
Inclination
61.9902°
RAAN
284.0803°
Arg. of periapsis
88.4364°
True anomaly
271.67274°
Mean anomaly
272.3263°
Eccentric anomaly
271.99953°
Mean motion
3.76132 °/min
Orbital period
95.71 mins
BSTAR
0.00039123
Loading maneuver chart data...
Computing Atmospheric mass density...
Loading historical data...
Loading historical data...
Loading historical data...
Loading historical data...
Loading historical data...
Loading historical data...
Loading historical data...

Documentation

Showing up to 5 results
|